Regional Weather Roundup
Issued by NWS

Home | Current Version | Previous Version | Graphics & Text | Print | Product List | Glossary On
Versions: 1 2 3 4 5 6 7 8 9 10 11 12 13 14 15 16 17 18 19 20 21 22 23 24 25 26 27 28 29 30 31 32 33 34 35 36 37 38 39 40 41 42 43 44 45 46 47 48 49 50
000
ASUS43 KBIS 180410
RWRND

NORTH DAKOTA REGIONAL WEATHER ROUNDUP
NATIONAL WEATHER SERVICE BISMARCK ND
1000 PM CST WED JAN 17 2018

NOTE: "FAIR" INDICATES FEW OR NO CLOUDS BELOW 12,000 FEET WITH NO
SIGNIFICANT WEATHER AND/OR OBSTRUCTIONS TO VISIBILITY.


NDZ001>003-009>011-017-180500-
NORTHWEST NORTH DAKOTA

CITY           SKY/WX    TMP DP  RH WIND       PRES   REMARKS
WILLISTON      CLOUDY    25  18  74 SW15      29.95F WCI  13
MINOT          MOCLDY    37  22  54 SW24G35   29.87F
MINOT AFB      PTCLDY    31  22  68 W17       29.85F WCI  20
$$

NDZ018>021-031>035-040>046-180500-
SOUTHWEST NORTH DAKOTA

CITY           SKY/WX    TMP DP  RH WIND       PRES   REMARKS
BISMARCK       MOCLDY    29  21  72 SW9       30.00F
DICKINSON      CLEAR     25  18  74 W13       29.96F WCI  14
GARRISON         N/A     25  19  78 W10       29.93F WCI  15
HETTINGER ARPT PTCLDY    25  18  74 W7        30.02F WCI  17
$$

NDZ004>008-012>016-024-026-027-054-180500-
NORTHEAST NORTH DAKOTA

CITY           SKY/WX    TMP DP  RH WIND       PRES   REMARKS
GRAND FORKS    MOCLDY    34  25  69 SW16      29.83F
GRND FRKS AFB  FAIR      35  24  64 W18G25    29.83F
DEVILS LAKE    FAIR      29  23  78 W18       29.85F WCI  16
$$

NDZ022-023-025-028>030-036>039-047>053-180500-
SOUTHEAST NORTH DAKOTA

CITY           SKY/WX    TMP DP  RH WIND       PRES   REMARKS
FARGO          FAIR      31  22  69 SW20      29.94S WCI  19
JAMESTOWN      CLOUDY    32  23  69 W16       29.93S
$$





USA.gov is the U.S. government's official web portal to all federal, state and local government web resources and services.